This is the latest recevied weather packets stored in our database for station/object W4TTU-1. If no packets are shown the sender has not sent any weather packets the latest 10 day(s).
| Time | Temp. | Humidity | Pressure | Rain* | Wind** | Luminosity | Snow |
|---|---|---|---|---|---|---|---|
| 1778078050 | 0° C | 46% | 849.6 hPa | 0 mm | - | - | - |
| 1778077149 | -1.11° C | 46% | 849.8 hPa | 0 mm | - | - | - |
| 1778076249 | -2.22° C | 44% | 849.9 hPa | 0 mm | - | - | - |
| 1778075349 | -3.33° C | 41% | 850 hPa | 0 mm | - | - | - |
| 1778074448 | -3.89° C | 38% | 850.1 hPa | 0 mm | - | - | - |
| 1778073547 | -4.44° C | 37% | 850.1 hPa | 0 mm | - | - | - |
| 1778072647 | -4.44° C | 38% | 850.1 hPa | 0 mm | - | - | - |
| 1778071747 | -4.44° C | 37% | 849.9 hPa | 0 mm | - | - | - |
| 1778070846 | -4.44° C | 37% | 849.8 hPa | 0 mm | - | - | - |
| 1778069947 | -4.44° C | 35% | 849.7 hPa | 0 mm | - | - | - |
| 1778069045 | -3.89° C | 35% | 849.6 hPa | 0 mm | - | - | - |
| 1778067244 | -3.89° C | 37% | 849.6 hPa | 0 mm | - | - | - |
| 1778065443 | -3.89° C | 37% | 849.5 hPa | 0 mm | - | - | - |
| 1778064545 | -3.89° C | 36% | 849.5 hPa | 0 mm | - | - | - |
| 1778063642 | -3.89° C | 37% | 849.5 hPa | 0 mm | - | - | - |
| 1778062741 | -3.89° C | 35% | 849.5 hPa | 0 mm | - | - | - |
| 1778061840 | -3.89° C | 35% | 849.4 hPa | 0 mm | - | - | - |
| 1778060940 | -3.89° C | 35% | 849.6 hPa | 0 mm | - | - | - |
| 1778060040 | -3.89° C | 34% | 849.6 hPa | 0 mm | - | - | - |
| 1778059139 | -3.33° C | 35% | 849.6 hPa | 0 mm | - | - | - |
| 1778058238 | -3.33° C | 34% | 849.8 hPa | 0 mm | - | - | - |
| 1778057338 | -3.33° C | 34% | 849.8 hPa | 0 mm | - | - | - |
| 1778056437 | -3.33° C | 33% | 849.8 hPa | 0 mm | - | - | - |
| 1778055537 | -2.78° C | 33% | 849.7 hPa | 0 mm | - | - | - |
| 1778054636 | -2.78° C | 33% | 849.7 hPa | 0 mm | - | - | - |
* Rain since midnight (hover to see other rain measurements)
** Current wind speed in m/s (hover to see current wind gust speed)